When you browse on this site, cookies collect data to enhance your experience and personalize the content and advertising you see.
Visit our Privacy Policy to learn more. By continuing to use the site, you agree to this use of cookies and data.
  • In Hungary
  • List of Countries
  • For 7 days
  • Water Temperature
  • Satellite Maps
  • Weather Map
  • News
  • Weather Widgets
  • user-avatar
    Login

    Hourly Weather Grabka

    Today, 16 January, Wednesday

    Time Temperature Precipitation Wind Pressure Humidity
    00:00 -2°C° 1 mm 6 mps 707 mmHg 90%
    01:00 -2°C° 1 mm 6 mps 707 mmHg 90%
    02:00 -2°C° 1.1 mm 6 mps 708 mmHg 91%
    03:00 -2°C° 1.1 mm 6 mps 708 mmHg 92%
    04:00 -1°C° 1.1 mm 5 mps 708 mmHg 92%
    05:00 -1°C° 0.9 mm 5 mps 708 mmHg 93%
    06:00 -1°C° 0.9 mm 4 mps 708 mmHg 94%
    07:00 -1°C° 0.9 mm 4 mps 709 mmHg 95%
    08:00 0°C° 0.5 mm 3 mps 709 mmHg 96%
    09:00 0°C° 0.5 mm 3 mps 709 mmHg 97%
    10:00 0°C° 0.5 mm 3 mps 710 mmHg 98%
    11:00 0°C° 0.1 mm 3 mps 710 mmHg 98%
    12:00 +1°C° 0.1 mm 3 mps 710 mmHg 99%
    13:00 +1°C° 0.1 mm 3 mps 710 mmHg 99%
    14:00 0°C° 0 mm 3 mps 710 mmHg 97%
    15:00 0°C° 0 mm 3 mps 711 mmHg 95%
    16:00 0°C° 0 mm 3 mps 711 mmHg 93%
    17:00 0°C° 0 mm 3 mps 711 mmHg 92%
    18:00 -1°C° 0 mm 3 mps 710 mmHg 91%
    19:00 -1°C° 0 mm 3 mps 710 mmHg 91%
    20:00 -1°C° 0 mm 3 mps 710 mmHg 90%
    21:00 -1°C° 0 mm 3 mps 710 mmHg 90%
    22:00 -1°C° 0 mm 3 mps 710 mmHg 89%
    23:00 -2°C° 0 mm 4 mps 710 mmHg 88%

    Tomorrow, 17 January, Thursday

    Time Temperature Precipitation Wind Pressure Humidity
    00:00 -3°C° 0 mm 4 mps 709 mmHg 87%
    01:00 -3°C° 0 mm 4 mps 709 mmHg 85%
    02:00 -2°C° 0 mm 4 mps 709 mmHg 81%
    03:00 -2°C° 0 mm 4 mps 708 mmHg 78%
    04:00 -2°C° 0 mm 4 mps 708 mmHg 74%
    05:00 -2°C° 0 mm 5 mps 708 mmHg 73%
    06:00 -2°C° 0 mm 5 mps 708 mmHg 72%
    07:00 -1°C° 0 mm 5 mps 708 mmHg 71%
    08:00 -1°C° 0 mm 5 mps 708 mmHg 72%
    09:00 -1°C° 0 mm 5 mps 708 mmHg 74%
    10:00 -1°C° 0 mm 6 mps 708 mmHg 75%
    11:00 0°C° 0 mm 5 mps 708 mmHg 78%
    12:00 0°C° 0 mm 5 mps 708 mmHg 81%
    13:00 0°C° 0 mm 5 mps 708 mmHg 84%
    14:00 0°C° 0 mm 5 mps 708 mmHg 84%
    15:00 0°C° 0 mm 5 mps 707 mmHg 84%
    16:00 -1°C° 0 mm 4 mps 707 mmHg 84%
    17:00 -1°C° 0 mm 5 mps 707 mmHg 84%
    18:00 -1°C° 0 mm 5 mps 707 mmHg 84%
    19:00 -1°C° 0 mm 5 mps 707 mmHg 83%
    20:00 0°C° 0 mm 5 mps 707 mmHg 84%
    21:00 0°C° 0 mm 5 mps 708 mmHg 85%
    22:00 -1°C° 0 mm 6 mps 708 mmHg 86%
    23:00 -2°C° 0 mm 6 mps 708 mmHg 85%

    Day after tomorrow, 18 January, Friday

    Time Temperature Precipitation Wind Pressure Humidity
    00:00 -2°C° 0 mm 6 mps 708 mmHg 84%
    01:00 -1°C° 0 mm 5 mps 709 mmHg 83%
    02:00 -2°C° 0.1 mm 5 mps 709 mmHg 85%
    03:00 -2°C° 0.1 mm 4 mps 709 mmHg 87%
    04:00 -2°C° 0.1 mm 3 mps 709 mmHg 89%
    05:00 -4°C° 0 mm 3 mps 710 mmHg 87%
    06:00 -5°C° 0 mm 3 mps 711 mmHg 85%
    07:00 -6°C° 0 mm 3 mps 711 mmHg 84%
    08:00 -5°C° 0 mm 4 mps 712 mmHg 82%
    09:00 -5°C° 0 mm 4 mps 713 mmHg 80%
    10:00 -4°C° 0 mm 4 mps 714 mmHg 78%
    11:00 -4°C° 0.1 mm 4 mps 714 mmHg 78%
    12:00 -4°C° 0.1 mm 4 mps 715 mmHg 77%
    13:00 -4°C° 0.1 mm 4 mps 715 mmHg 76%
    14:00 -4°C° 0.1 mm 3 mps 715 mmHg 77%
    15:00 -4°C° 0.1 mm 2 mps 715 mmHg 78%
    16:00 -5°C° 0.1 mm 2 mps 716 mmHg 79%
    17:00 -3°C° 0 mm 1 mps 716 mmHg 79%
    18:00 -4°C° 0 mm 1 mps 716 mmHg 79%
    19:00 -6°C° 0 mm 1 mps 717 mmHg 80%
    20:00 -6°C° 0 mm 1 mps 717 mmHg 80%
    21:00 -7°C° 0 mm 1 mps 717 mmHg 81%
    22:00 -8°C° 0 mm 2 mps 717 mmHg 82%
    23:00 -8°C° 0 mm 2 mps 717 mmHg 81%

    19 January, Saturday

    Time Temperature Precipitation Wind Pressure Humidity
    00:00 -7°C° 0 mm 1 mps 717 mmHg 80%
    01:00 -7°C° 0 mm 1 mps 717 mmHg 80%
    02:00 -8°C° 0 mm 2 mps 717 mmHg 79%
    03:00 -8°C° 0 mm 2 mps 717 mmHg 77%
    04:00 -8°C° 0 mm 2 mps 717 mmHg 76%
    05:00 -8°C° 0 mm 2 mps 717 mmHg 75%
    06:00 -9°C° 0 mm 2 mps 717 mmHg 75%
    07:00 -9°C° 0 mm 2 mps 717 mmHg 74%
    08:00 -8°C° 0 mm 2 mps 717 mmHg 74%
    09:00 -6°C° 0 mm 1 mps 717 mmHg 74%
    10:00 -3°C° 0 mm 1 mps 717 mmHg 74%
    11:00 -2°C° 0 mm 1 mps 717 mmHg 72%
    12:00 -1°C° 0 mm 1 mps 717 mmHg 69%
    13:00 0°C° 0 mm 1 mps 716 mmHg 67%
    14:00 -2°C° 0 mm 0 mps 716 mmHg 70%
    15:00 -3°C° 0 mm 0 mps 716 mmHg 73%
    16:00 -4°C° 0 mm 0 mps 715 mmHg 77%
    17:00 -5°C° 0 mm 0 mps 715 mmHg 78%
    18:00 -4°C° 0 mm 1 mps 715 mmHg 79%
    19:00 -6°C° 0 mm 1 mps 715 mmHg 80%
    20:00 -6°C° 0 mm 1 mps 715 mmHg 81%
    21:00 -6°C° 0 mm 1 mps 715 mmHg 81%
    22:00 -6°C° 0 mm 1 mps 715 mmHg 81%
    23:00 -6°C° 0 mm 1 mps 715 mmHg 81%

    20 January, Sunday

    Time Temperature Precipitation Wind Pressure Humidity
    00:00 -6°C° 0 mm 1 mps 715 mmHg 81%
    01:00 -6°C° 0 mm 1 mps 715 mmHg 81%
    02:00 -7°C° 0 mm 0 mps 715 mmHg 80%
    03:00 -7°C° 0 mm 0 mps 715 mmHg 80%
    04:00 -7°C° 0 mm 0 mps 714 mmHg 80%
    05:00 -7°C° 0 mm 0 mps 715 mmHg 80%
    06:00 -8°C° 0 mm 0 mps 715 mmHg 80%
    07:00 -8°C° 0 mm 0 mps 715 mmHg 80%
    08:00 -7°C° 0 mm 0 mps 716 mmHg 77%
    09:00 -6°C° 0 mm 0 mps 716 mmHg 75%
    10:00 -5°C° 0 mm 0 mps 717 mmHg 73%
    11:00 -3°C° 0 mm 1 mps 717 mmHg 70%
    12:00 -2°C° 0 mm 1 mps 717 mmHg 67%
    13:00 -2°C° 0 mm 1 mps 717 mmHg 64%
    14:00 -2°C° 0 mm 1 mps 717 mmHg 69%
    15:00 -3°C° 0 mm 1 mps 717 mmHg 74%
    16:00 -4°C° 0 mm 1 mps 718 mmHg 78%
    17:00 -4°C° 0 mm 1 mps 718 mmHg 82%
    18:00 -4°C° 0 mm 1 mps 719 mmHg 85%
    19:00 -6°C° 0 mm 1 mps 719 mmHg 89%
    20:00 -6°C° 0 mm 1 mps 720 mmHg 90%
    21:00 -6°C° 0 mm 1 mps 720 mmHg 92%
    22:00 -7°C° 0 mm 1 mps 720 mmHg 93%
    23:00 -7°C° 0 mm 1 mps 721 mmHg 93%

    21 January, Monday

    Time Temperature Precipitation Wind Pressure Humidity
    00:00 -7°C° 0 mm 1 mps 721 mmHg 93%
    01:00 -8°C° 0 mm 1 mps 721 mmHg 93%
    02:00 -8°C° 0 mm 1 mps 721 mmHg 94%
    03:00 -8°C° 0 mm 1 mps 721 mmHg 94%
    04:00 -8°C° 0 mm 1 mps 722 mmHg 94%
    05:00 -8°C° 0 mm 0 mps 722 mmHg 94%
    06:00 -8°C° 0 mm 0 mps 722 mmHg 94%
    07:00 -8°C° 0 mm 0 mps 723 mmHg 94%
    08:00 -7°C° 0 mm 0 mps 723 mmHg 91%
    09:00 -7°C° 0 mm 0 mps 723 mmHg 88%
    10:00 -6°C° 0 mm 0 mps 724 mmHg 85%
    11:00 -4°C° 0 mm 1 mps 724 mmHg 81%
    12:00 -3°C° 0 mm 1 mps 724 mmHg 76%
    13:00 -2°C° 0 mm 1 mps 724 mmHg 71%
    14:00 -3°C° 0 mm 1 mps 723 mmHg 74%
    15:00 -4°C° 0 mm 1 mps 723 mmHg 77%
    16:00 -6°C° 0 mm 1 mps 723 mmHg 79%
    17:00 -7°C° 0 mm 1 mps 723 mmHg 80%
    18:00 -7°C° 0 mm 1 mps 723 mmHg 82%
    19:00 -8°C° 0 mm 1 mps 722 mmHg 83%
    20:00 -9°C° 0 mm 2 mps 722 mmHg 82%
    21:00 -10°C° 0 mm 2 mps 722 mmHg 82%
    22:00 -10°C° 0 mm 2 mps 722 mmHg 81%
    23:00 -10°C° 0 mm 2 mps 722 mmHg 80%
    Show more